This demonstration page uses our WeatherBlox Daily Observations layout. Learn more.

Left ArrowRight Arrow

Hourly Observations for May 6, 2020

Temp ( °F °C ) Dew Point ( °F °C ) Humidity (%) Winds ( mph kmh ) Pressure ( in mb ) Visibility ( mi km ) Precip ( " mm )
12:28 am 00:28 Cloudy 43 6.1 38 3.3 82 82 NNE 9 15 29.97 1015 10 16.0934 N/A
12:43 am 00:43 Cloudy 43 6.1 38 3.3 82 82 N 12 19 29.97 1015 10 16.0934 N/A
12:53 am 00:53 Cloudy 43 6.1 37 2.8 80 80 N 13 20 29.96 1015 10 16.0934 N/A
1:16 am 01:16 Cloudy 42 5.6 36 2.2 79 79 N 9 15 29.98 1015 10 16.0934 N/A
1:53 am 01:53 Cloudy 41 5 36 2.2 82 82 NNE 9 15 29.96 1015 10 16.0934 N/A
2:13 am 02:13 Cloudy 41 5 35 1.7 79 79 N 8 13 29.98 1015 10 16.0934 N/A
2:23 am 02:23 Cloudy 41 5 35 1.7 79 79 N 6 9 29.98 1015 10 16.0934 N/A
2:53 am 02:53 Cloudy 41 5 35 1.7 79 79 VRB 7 11 29.96 1015 10 16.0934 N/A
3:45 am 03:45 Cloudy 41 5 35 1.7 79 79 NE 6 9 29.97 1015 10 16.0934 N/A
3:53 am 03:53 Cloudy 41 5 35 1.7 79 79 NE 5 7 29.96 1015 10 16.0934 N/A
4:53 am 04:53 Cloudy 41 5 35 1.7 79 79 N 3 6 29.97 1015 10 16.0934 N/A
5:53 am 05:53 Cloudy 41 5 35 1.7 79 79 NNW 5 7 29.98 1015 10 16.0934 N/A
6:53 am 06:53 Cloudy with Light Rain 41 5 36 2.2 82 82 NW 6 9 29.99 1016 10 16.0934 0.001 0.001
7:53 am 07:53 Cloudy 42 5.6 36 2.2 79 79 WNW 7 11 30 1016 10 16.0934 0.001 0.001
8:53 am 08:53 Cloudy 43 6.1 35 1.7 74 74 WNW 8 13 30.01 1016 10 16.0934 N/A
9:53 am 09:53 Cloudy 46 7.8 37 2.8 71 71 NW 9 15 30.01 1016 10 16.0934 N/A
10:53 am 10:53 Cloudy 49 9.4 37 2.8 64 64 NNW 12 19 30.01 1016 10 16.0934 N/A
11:53 am 11:53 Partly Cloudy 54 12.2 37 2.8 53 53 NNW 13 20 30.02 1017 10 16.0934 N/A
12:53 pm 12:53 Partly Cloudy 55 12.8 36 2.2 49 49 WNW 13 20 30.03 1017 10 16.0934 N/A
1:53 pm 13:53 Sunny 58 14.4 33 0.6 39 39 NW 16 26 30.02 1017 10 16.0934 N/A
2:53 pm 14:53 Sunny 58 14.4 29 -1.7 33 33 NW 7 11 30.02 1017 10 16.0934 N/A
3:53 pm 15:53 Sunny 59 15 29 -1.7 32 32 WNW 10 17 30.01 1016 10 16.0934 N/A
4:53 pm 16:53 Sunny 59 15 24 -4.4 26 26 NW 13 20 30.01 1016 10 16.0934 N/A
5:53 pm 17:53 Sunny 59 15 21 -6.1 23 23 NNW 10 17 30.01 1016 10 16.0934 N/A
6:53 pm 18:53 Sunny 59 15 22 -5.6 24 24 NW 12 19 30.02 1017 10 16.0934 N/A
7:53 pm 19:53 Sunny 56 13.3 23 -5 28 28 NW 13 20 30.03 1017 10 16.0934 N/A
8:53 pm 20:53 Clear 51 10.6 27 -2.8 39 39 WNW 6 9 30.04 1017 10 16.0934 N/A
9:53 pm 21:53 Clear 46 7.8 36 2.2 68 68 WNW 5 7 30.06 1018 10 16.0934 N/A
10:53 pm 22:53 Clear 44 6.7 33 0.6 65 65 W 3 6 30.06 1018 10 16.0934 N/A
11:53 pm 23:53 Clear 46 7.8 29 -1.7 51 51 WNW 7 11 30.06 1018 10 16.0934 N/A

Powered by AerisWeather